FFT23 KRIC-KMCO

Flight info

Callsign FFT23
Flight time N/A
Altitude 34000
Route KALLI7 DRAIK GSO Q83 ROYCO Q85 LPERD GTOUT1
Aircraft A20N/M-SDE2E3FGHIRWXY/LB1

Departure

Time 2026-05-07 13:45
Airport Richmond International Airport (KRIC)

Arrival

Time N/A
Airport Orlando International Airport (KMCO)
Time Latitude Longitude Altitude Speed Heading
2026-05-07 13:32 37.50892 -77.33169 179 ft 0 kts 153°
2026-05-07 13:35 37.50901 -77.33174 179 ft 2 kts 158°
2026-05-07 13:36 37.50916 -77.33178 179 ft 2 kts 194°
2026-05-07 13:36 37.50932 -77.33171 179 ft 2 kts 195°
2026-05-07 13:36 37.50947 -77.33166 179 ft 2 kts 195°
2026-05-07 13:36 37.50963 -77.33161 179 ft 2 kts 195°
2026-05-07 13:37 37.50979 -77.33155 179 ft 2 kts 195°
2026-05-07 13:37 37.50994 -77.33150 179 ft 2 kts 195°
2026-05-07 13:37 37.51010 -77.33144 179 ft 2 kts 195°
2026-05-07 13:37 37.51026 -77.33139 179 ft 2 kts 195°
2026-05-07 13:38 37.51041 -77.33138 179 ft 2 kts 163°
2026-05-07 13:38 37.51056 -77.33145 179 ft 2 kts 153°
2026-05-07 13:38 37.51063 -77.33150 179 ft 0 kts 151°
2026-05-07 13:39 37.51063 -77.33149 179 ft 0 kts 138°
2026-05-07 13:39 37.51063 -77.33134 179 ft 4 kts 79°
2026-05-07 13:39 37.51098 -77.33108 179 ft 9 kts 18°
2026-05-07 13:39 37.51129 -77.33000 179 ft 15 kts 99°
2026-05-07 13:40 37.51101 -77.32878 179 ft 14 kts 118°
2026-05-07 13:40 37.51025 -77.32852 179 ft 10 kts 189°
2026-05-07 13:40 37.50961 -77.32783 179 ft 12 kts 98°
2026-05-07 13:40 37.50987 -77.32613 179 ft 30 kts 87°
2026-05-07 13:41 37.50965 -77.32355 179 ft 29 kts 97°
2026-05-07 13:41 37.50934 -77.32102 179 ft 28 kts 111°
2026-05-07 13:41 37.50802 -77.31961 179 ft 22 kts 144°
2026-05-07 13:41 37.50675 -77.31869 179 ft 21 kts 149°
2026-05-07 13:42 37.50553 -77.31775 179 ft 20 kts 148°
2026-05-07 13:42 37.50438 -77.31683 179 ft 19 kts 147°
2026-05-07 13:42 37.50328 -77.31590 179 ft 19 kts 147°
2026-05-07 13:42 37.50219 -77.31501 179 ft 19 kts 148°
2026-05-07 13:43 37.50108 -77.31415 179 ft 21 kts 150°
2026-05-07 13:43 37.49961 -77.31300 179 ft 25 kts 147°
2026-05-07 13:43 37.49812 -77.31182 179 ft 25 kts 147°
2026-05-07 13:43 37.49667 -77.31065 179 ft 25 kts 147°
2026-05-07 13:44 37.49534 -77.30960 179 ft 15 kts 149°
2026-05-07 13:44 37.49505 -77.30866 179 ft 11 kts 59°
2026-05-07 13:44 37.49550 -77.30772 179 ft 14 kts 59°
2026-05-07 13:44 37.49619 -77.30726 179 ft 11 kts 337°
2026-05-07 13:45 37.49807 -77.30869 178 ft 66 kts 327°
2026-05-07 13:45 37.50415 -77.31358 183 ft 142 kts 327°
2026-05-07 13:45 37.51329 -77.32100 614 ft 170 kts 330°
2026-05-07 13:45 37.52439 -77.33043 820 ft 213 kts 323°
2026-05-07 13:46 37.53266 -77.34781 1111 ft 255 kts 282°
2026-05-07 13:46 37.53113 -77.36804 1519 ft 232 kts 250°